Time,TemperatureF,DewpointF,PressureIn,WindDirection,WindDirectionDegrees,WindSpeedMPH,WindSpeedGustMPH,Humidity,HourlyPrecipIn,Conditions,Clouds,dailyrainin,SoftwareType,DateUTC
2013-07-14 00:02:00,73.9,71.4,30.13,SSE,151,1.0,2.0,92,0.00,,,0.00,Wunderground v.1.15,2013-07-14 04:02:00,
2013-07-14 00:08:00,73.9,71.4,30.13,WSW,258,1.0,3.0,92,0.00,,,0.00,Wunderground v.1.15,2013-07-14 04:08:00,
2013-07-14 00:10:00,73.8,71.3,30.13,South,179,1.0,1.0,92,0.00,,,0.00,Wunderground v.1.15,2013-07-14 04:10:00,
2013-07-14 00:16:00,73.9,71.4,30.13,SSW,210,1.0,2.0,92,0.00,,,0.00,Wunderground v.1.15,2013-07-14 04:16:00,
2013-07-14 00:18:00,73.9,71.4,30.13,WNW,300,1.0,2.0,92,0.00,,,0.00,Wunderground v.1.15,2013-07-14 04:18:00,
2013-07-14 00:24:00,73.9,71.4,30.13,WNW,289,1.0,3.0,92,0.00,,,0.00,Wunderground v.1.15,2013-07-14 04:24:00,
2013-07-14 00:30:00,74.0,71.5,30.14,WSW,242,1.0,2.0,92,0.00,,,0.00,Wunderground v.1.15,2013-07-14 04:30:00,
2013-07-14 00:36:00,74.0,71.5,30.14,WNW,299,2.0,3.0,92,0.00,,,0.00,Wunderground v.1.15,2013-07-14 04:36:00,
2013-07-14 00:42:00,74.0,71.5,30.14,West,262,2.0,2.0,92,0.00,,,0.00,Wunderground v.1.15,2013-07-14 04:42:00,
2013-07-14 00:48:00,74.1,71.6,30.15,West,272,1.0,2.0,92,0.00,,,0.00,Wunderground v.1.15,2013-07-14 04:48:00,
2013-07-14 00:54:00,74.1,71.6,30.15,WSW,256,1.0,2.0,92,0.00,,,0.00,Wunderground v.1.15,2013-07-14 04:54:00,
2013-07-14 01:00:00,74.1,71.6,30.16,West,259,1.0,1.0,92,0.00,,,0.00,Wunderground v.1.15,2013-07-14 05:00:00,
2013-07-14 01:06:00,74.1,71.6,30.16,WNW,296,1.0,4.0,92,0.00,,,0.00,Wunderground v.1.15,2013-07-14 05:06:00,
2013-07-14 01:12:00,74.1,71.6,30.16,West,263,1.0,1.0,92,0.00,,,0.00,Wunderground v.1.15,2013-07-14 05:12:00,
2013-07-14 01:18:00,74.1,71.6,30.16,WSW,255,1.0,3.0,92,0.00,,,0.00,Wunderground v.1.15,2013-07-14 05:18:00,
2013-07-14 01:24:00,74.0,71.5,30.17,WNW,282,1.0,2.0,92,0.00,,,0.00,Wunderground v.1.15,2013-07-14 05:24:00,
2013-07-14 01:30:00,73.9,71.4,30.17,WSW,255,2.0,3.0,92,0.00,,,0.00,Wunderground v.1.15,2013-07-14 05:30:00,
2013-07-14 01:36:00,73.9,71.4,30.17,WNW,293,2.0,3.0,92,0.00,,,0.00,Wunderground v.1.15,2013-07-14 05:36:00,
2013-07-14 01:42:00,73.8,71.3,30.17,West,267,1.0,1.0,92,0.00,,,0.00,Wunderground v.1.15,2013-07-14 05:42:00,
2013-07-14 01:48:00,73.9,71.4,30.17,West,279,1.0,2.0,92,0.00,,,0.00,Wunderground v.1.15,2013-07-14 05:48:00,
2013-07-14 01:54:00,73.8,71.3,30.17,West,259,1.0,1.0,92,0.00,,,0.00,Wunderground v.1.15,2013-07-14 05:54:00,
2013-07-14 02:00:00,73.8,71.3,30.17,West,264,2.0,2.0,92,0.00,,,0.00,Wunderground v.1.15,2013-07-14 06:00:00,
2013-07-14 02:06:00,73.8,71.3,30.17,WNW,287,1.0,2.0,92,0.00,,,0.00,Wunderground v.1.15,2013-07-14 06:06:00,
2013-07-14 02:12:00,73.7,71.2,30.17,WSW,251,1.0,2.0,92,0.00,,,0.00,Wunderground v.1.15,2013-07-14 06:12:00,
2013-07-14 02:18:00,73.6,71.1,30.17,West,281,1.0,2.0,92,0.00,,,0.00,Wunderground v.1.15,2013-07-14 06:18:00,
2013-07-14 02:24:00,73.5,71.0,30.17,West,277,1.0,2.0,92,0.00,,,0.00,Wunderground v.1.15,2013-07-14 06:24:00,
2013-07-14 02:30:00,73.5,71.0,30.17,WNW,295,1.0,1.0,92,0.00,,,0.00,Wunderground v.1.15,2013-07-14 06:30:00,
2013-07-14 02:36:00,73.4,70.9,30.17,WNW,297,1.0,1.0,92,0.00,,,0.00,Wunderground v.1.15,2013-07-14 06:36:00,
2013-07-14 02:42:00,73.3,70.8,30.17,West,278,0.0,1.0,92,0.00,,,0.00,Wunderground v.1.15,2013-07-14 06:42:00,
2013-07-14 02:48:00,73.3,70.8,30.17,West,272,0.0,1.0,92,0.00,,,0.00,Wunderground v.1.15,2013-07-14 06:48:00,
2013-07-14 02:54:00,73.3,70.8,30.17,West,261,0.0,0.0,92,0.00,,,0.00,Wunderground v.1.15,2013-07-14 06:54:00,
2013-07-14 03:00:00,73.3,70.8,30.17,West,261,0.0,0.0,92,0.00,,,0.00,Wunderground v.1.15,2013-07-14 07:00:00,
2013-07-14 03:06:00,73.3,70.8,30.17,West,261,0.0,0.0,92,0.00,,,0.00,Wunderground v.1.15,2013-07-14 07:06:00,
2013-07-14 03:12:00,73.3,70.8,30.17,West,261,0.0,0.0,92,0.00,,,0.00,Wunderground v.1.15,2013-07-14 07:12:00,
2013-07-14 03:18:00,73.3,70.8,30.17,WNW,286,0.0,1.0,92,0.00,,,0.00,Wunderground v.1.15,2013-07-14 07:18:00,
2013-07-14 03:24:00,73.3,70.8,30.17,WSW,256,0.0,2.0,92,0.00,,,0.00,Wunderground v.1.15,2013-07-14 07:24:00,
2013-07-14 03:30:00,73.3,70.8,30.18,WNW,293,1.0,1.0,92,0.00,,,0.00,Wunderground v.1.15,2013-07-14 07:30:00,
2013-07-14 03:36:00,73.3,70.8,30.18,WNW,294,1.0,2.0,92,0.00,,,0.00,Wunderground v.1.15,2013-07-14 07:36:00,
2013-07-14 03:42:00,73.3,70.8,30.18,WNW,301,1.0,2.0,92,0.00,,,0.00,Wunderground v.1.15,2013-07-14 07:42:00,
2013-07-14 03:48:00,73.3,70.8,30.18,WNW,299,1.0,2.0,92,0.00,,,0.00,Wunderground v.1.15,2013-07-14 07:48:00,
2013-07-14 03:54:00,73.3,70.8,30.18,West,266,0.0,1.0,92,0.00,,,0.00,Wunderground v.1.15,2013-07-14 07:54:00,
2013-07-14 04:00:00,73.3,70.8,30.18,WNW,297,0.0,0.0,92,0.00,,,0.00,Wunderground v.1.15,2013-07-14 08:00:00,
2013-07-14 04:06:00,73.3,70.8,30.18,WSW,249,1.0,3.0,92,0.00,,,0.00,Wunderground v.1.15,2013-07-14 08:06:00,
2013-07-14 04:12:00,73.2,70.7,30.18,WNW,295,1.0,2.0,92,0.00,,,0.00,Wunderground v.1.15,2013-07-14 08:12:00,
2013-07-14 04:18:00,73.2,70.7,30.18,West,265,1.0,2.0,92,0.00,,,0.00,Wunderground v.1.15,2013-07-14 08:18:00,
2013-07-14 04:24:00,73.2,70.7,30.18,West,265,0.0,1.0,92,0.00,,,0.00,Wunderground v.1.15,2013-07-14 08:24:00,
2013-07-14 04:30:00,73.1,70.6,30.18,West,260,0.0,0.0,92,0.00,,,0.00,Wunderground v.1.15,2013-07-14 08:30:00,
2013-07-14 04:36:00,73.1,70.6,30.18,West,260,0.0,0.0,92,0.00,,,0.00,Wunderground v.1.15,2013-07-14 08:36:00,
2013-07-14 04:42:00,73.0,70.5,30.18,West,260,0.0,0.0,92,0.00,,,0.00,Wunderground v.1.15,2013-07-14 08:42:00,
2013-07-14 04:48:00,72.9,70.4,30.19,West,269,0.0,0.0,92,0.00,,,0.01,Wunderground v.1.15,2013-07-14 08:48:00,
2013-07-14 04:54:00,72.9,70.4,30.19,West,269,0.0,0.0,92,0.00,,,0.01,Wunderground v.1.15,2013-07-14 08:54:00,
2013-07-14 05:00:00,72.9,70.4,30.19,West,269,0.0,0.0,92,0.00,,,0.01,Wunderground v.1.15,2013-07-14 09:00:00,
2013-07-14 05:06:00,72.9,70.4,30.19,South,187,0.0,0.0,92,0.00,,,0.01,Wunderground v.1.15,2013-07-14 09:06:00,
2013-07-14 05:10:00,72.9,70.4,30.19,NW,308,0.0,0.0,92,0.00,,,0.01,Wunderground v.1.15,2013-07-14 09:10:00,
2013-07-14 05:16:00,72.9,70.4,30.20,West,280,0.0,0.0,92,0.00,,,0.01,Wunderground v.1.15,2013-07-14 09:16:00,
2013-07-14 05:22:00,72.9,70.4,30.20,WNW,282,0.0,1.0,92,0.00,,,0.01,Wunderground v.1.15,2013-07-14 09:22:00,
2013-07-14 05:28:00,72.9,70.4,30.20,WNW,292,0.0,1.0,92,0.00,,,0.01,Wunderground v.1.15,2013-07-14 09:28:00,
2013-07-14 05:34:00,72.9,70.4,30.20,NW,308,0.0,0.0,92,0.00,,,0.01,Wunderground v.1.15,2013-07-14 09:34:00,
2013-07-14 05:40:00,72.9,70.4,30.21,SW,235,0.0,0.0,92,0.00,,,0.01,Wunderground v.1.15,2013-07-14 09:40:00,
2013-07-14 05:46:00,72.8,70.3,30.21,WSW,253,0.0,1.0,92,0.00,,,0.01,Wunderground v.1.15,2013-07-14 09:46:00,
2013-07-14 05:52:00,72.7,70.2,30.21,WSW,254,0.0,0.0,92,0.00,,,0.01,Wunderground v.1.15,2013-07-14 09:52:00,
2013-07-14 05:58:00,72.7,70.2,30.22,West,266,0.0,0.0,92,0.00,,,0.01,Wunderground v.1.15,2013-07-14 09:58:00,
2013-07-14 06:04:00,72.7,70.2,30.22,West,266,0.0,0.0,92,0.00,,,0.01,Wunderground v.1.15,2013-07-14 10:04:00,
2013-07-14 06:10:00,72.7,70.2,30.22,West,266,0.0,0.0,92,0.00,,,0.01,Wunderground v.1.15,2013-07-14 10:10:00,
2013-07-14 06:16:00,72.8,70.3,30.22,WSW,255,0.0,1.0,92,0.00,,,0.01,Wunderground v.1.15,2013-07-14 10:16:00,
2013-07-14 06:22:00,72.8,70.3,30.23,West,266,0.0,0.0,92,0.00,,,0.01,Wunderground v.1.15,2013-07-14 10:22:00,
2013-07-14 06:28:00,72.7,70.2,30.23,WSW,253,1.0,4.0,92,0.00,,,0.01,Wunderground v.1.15,2013-07-14 10:28:00,
2013-07-14 06:34:00,72.6,70.1,30.23,West,270,2.0,2.0,92,0.00,,,0.01,Wunderground v.1.15,2013-07-14 10:34:00,
2013-07-14 06:40:00,72.6,70.1,30.23,West,275,1.0,1.0,92,0.00,,,0.01,Wunderground v.1.15,2013-07-14 10:40:00,
2013-07-14 06:46:00,72.6,70.1,30.23,WSW,254,1.0,3.0,92,0.00,,,0.01,Wunderground v.1.15,2013-07-14 10:46:00,
2013-07-14 06:52:00,72.6,70.1,30.24,WSW,256,2.0,2.0,92,0.00,,,0.01,Wunderground v.1.15,2013-07-14 10:52:00,
2013-07-14 06:58:00,72.5,70.0,30.24,WNW,295,3.0,5.0,92,0.00,,,0.01,Wunderground v.1.15,2013-07-14 10:58:00,
2013-07-14 07:04:00,72.4,69.9,30.24,West,276,3.0,3.0,92,0.00,,,0.01,Wunderground v.1.15,2013-07-14 11:04:00,
2013-07-14 07:10:00,72.2,69.7,30.24,West,269,2.0,3.0,92,0.00,,,0.01,Wunderground v.1.15,2013-07-14 11:10:00,
2013-07-14 07:16:00,72.1,69.6,30.24,WNW,293,1.0,3.0,92,0.00,,,0.01,Wunderground v.1.15,2013-07-14 11:16:00,
2013-07-14 07:22:00,71.9,69.4,30.25,West,271,1.0,1.0,92,0.00,,,0.01,Wunderground v.1.15,2013-07-14 11:22:00,
2013-07-14 07:28:00,71.8,69.3,30.25,West,272,1.0,1.0,92,0.00,,,0.01,Wunderground v.1.15,2013-07-14 11:28:00,
2013-07-14 07:34:00,71.7,69.3,30.25,West,270,1.0,1.0,92,0.00,,,0.01,Wunderground v.1.15,2013-07-14 11:34:00,
2013-07-14 07:40:00,71.5,69.1,30.25,SW,214,1.0,2.0,92,0.00,,,0.01,Wunderground v.1.15,2013-07-14 11:40:00,
2013-07-14 07:46:00,71.4,69.0,30.25,West,270,2.0,2.0,92,0.00,,,0.01,Wunderground v.1.15,2013-07-14 11:46:00,
2013-07-14 07:52:00,71.5,69.1,30.25,West,274,1.0,1.0,92,0.00,,,0.01,Wunderground v.1.15,2013-07-14 11:52:00,
2013-07-14 07:58:00,71.8,69.3,30.25,West,279,1.0,1.0,92,0.00,,,0.01,Wunderground v.1.15,2013-07-14 11:58:00,
2013-07-14 08:04:00,72.4,69.9,30.25,West,264,0.0,0.0,92,0.00,,,0.01,Wunderground v.1.15,2013-07-14 12:04:00,
2013-07-14 08:16:00,73.7,71.2,30.26,West,265,0.0,2.0,92,0.00,,,0.01,Wunderground v.1.15,2013-07-14 12:16:00,
2013-07-14 08:22:00,74.2,71.7,30.26,WNW,293,1.0,2.0,92,0.00,,,0.01,Wunderground v.1.15,2013-07-14 12:22:00,
2013-07-14 08:28:00,74.2,71.7,30.27,NW,324,2.0,2.0,92,0.00,,,0.01,Wunderground v.1.15,2013-07-14 12:28:00,
2013-07-14 08:34:00,72.9,70.1,30.27,West,281,4.0,4.0,91,0.00,,,0.01,Wunderground v.1.15,2013-07-14 12:34:00,
2013-07-14 08:40:00,71.8,69.3,30.28,NW,314,5.0,5.0,92,0.00,,,0.01,Wunderground v.1.15,2013-07-14 12:40:00,
2013-07-14 08:46:00,71.3,68.9,30.28,WNW,283,5.0,5.0,92,0.00,,,0.01,Wunderground v.1.15,2013-07-14 12:46:00,
2013-07-14 08:52:00,71.1,68.7,30.28,NNW,332,4.0,5.0,92,0.00,,,0.01,Wunderground v.1.15,2013-07-14 12:52:00,
2013-07-14 08:58:00,70.7,68.3,30.29,WNW,284,3.0,4.0,92,0.00,,,0.01,Wunderground v.1.15,2013-07-14 12:58:00,
2013-07-14 09:04:00,70.6,68.2,30.29,WNW,301,2.0,3.0,92,0.00,,,0.01,Wunderground v.1.15,2013-07-14 13:04:00,
2013-07-14 09:10:00,70.6,68.2,30.29,WSW,244,2.0,3.0,92,0.00,,,0.01,Wunderground v.1.15,2013-07-14 13:10:00,
2013-07-14 09:16:00,70.7,68.3,30.28,WSW,255,1.0,3.0,92,0.00,,,0.01,Wunderground v.1.15,2013-07-14 13:16:00,
2013-07-14 09:22:00,71.0,68.6,30.28,West,262,1.0,2.0,92,0.00,,,0.01,Wunderground v.1.15,2013-07-14 13:22:00,
2013-07-14 09:28:00,71.3,68.9,30.28,SSE,161,1.0,2.0,92,0.00,,,0.01,Wunderground v.1.15,2013-07-14 13:28:00,
2013-07-14 09:34:00,71.4,69.0,30.28,West,281,1.0,2.0,92,0.00,,,0.01,Wunderground v.1.15,2013-07-14 13:34:00,
2013-07-14 09:40:00,71.5,69.1,30.27,ESE,119,1.0,1.0,92,0.00,,,0.01,Wunderground v.1.15,2013-07-14 13:40:00,
2013-07-14 09:46:00,71.6,69.2,30.27,West,278,1.0,1.0,92,0.00,,,0.01,Wunderground v.1.15,2013-07-14 13:46:00,
2013-07-14 09:52:00,72.1,69.6,30.27,NE,45,0.0,0.0,92,0.00,,,0.01,Wunderground v.1.15,2013-07-14 13:52:00,
2013-07-14 09:58:00,72.6,70.1,30.28,West,259,0.0,1.0,92,0.32,,,0.21,Wunderground v.1.15,2013-07-14 13:58:00,
2013-07-14 10:04:00,73.1,70.6,30.28,SSE,151,1.0,1.0,92,0.08,,,0.21,Wunderground v.1.15,2013-07-14 14:04:00,
2013-07-14 10:10:00,73.4,70.9,30.28,WSW,249,1.0,3.0,92,0.04,,,0.21,Wunderground v.1.15,2013-07-14 14:10:00,
2013-07-14 10:16:00,73.7,71.2,30.28,WSW,254,1.0,4.0,92,0.00,,,0.21,Wunderground v.1.15,2013-07-14 14:16:00,
2013-07-14 10:22:00,74.2,71.7,30.28,WNW,289,1.0,5.0,92,0.00,,,0.21,Wunderground v.1.15,2013-07-14 14:22:00,
2013-07-14 10:28:00,75.2,72.7,30.28,ESE,112,1.0,5.0,92,0.00,,,0.21,Wunderground v.1.15,2013-07-14 14:28:00,
2013-07-14 10:34:00,75.6,73.1,30.28,WSW,258,1.0,3.0,92,0.00,,,0.21,Wunderground v.1.15,2013-07-14 14:34:00,
2013-07-14 10:40:00,76.3,73.5,30.28,SE,146,1.0,1.0,91,0.00,,,0.21,Wunderground v.1.15,2013-07-14 14:40:00,
2013-07-14 10:46:00,77.0,74.2,30.28,West,266,1.0,2.0,91,0.00,,,0.21,Wunderground v.1.15,2013-07-14 14:46:00,
2013-07-14 10:52:00,77.9,75.1,30.28,SSE,162,1.0,4.0,91,0.00,,,0.21,Wunderground v.1.15,2013-07-14 14:52:00,
2013-07-14 10:58:00,78.6,75.4,30.28,West,264,2.0,4.0,90,0.00,,,0.21,Wunderground v.1.15,2013-07-14 14:58:00,
2013-07-14 11:04:00,79.0,75.8,30.28,WNW,302,2.0,3.0,90,0.00,,,0.21,Wunderground v.1.15,2013-07-14 15:04:00,
2013-07-14 11:10:00,79.2,75.3,30.29,West,261,1.0,3.0,88,0.00,,,0.21,Wunderground v.1.15,2013-07-14 15:10:00,
2013-07-14 11:16:00,79.8,75.9,30.29,NW,308,2.0,3.0,88,0.00,,,0.21,Wunderground v.1.15,2013-07-14 15:16:00,
2013-07-14 11:22:00,80.6,75.7,30.29,SE,135,2.0,2.0,85,0.00,,,0.21,Wunderground v.1.15,2013-07-14 15:22:00,
2013-07-14 11:28:00,81.0,75.7,30.29,NW,314,3.0,3.0,84,0.00,,,0.21,Wunderground v.1.15,2013-07-14 15:28:00,
2013-07-14 11:34:00,81.5,75.5,30.29,WSW,247,2.0,4.0,82,0.00,,,0.21,Wunderground v.1.15,2013-07-14 15:34:00,
2013-07-14 11:40:00,81.6,75.6,30.29,SE,135,3.0,3.0,82,0.00,,,0.21,Wunderground v.1.15,2013-07-14 15:40:00,
2013-07-14 11:46:00,81.1,74.7,30.29,ESE,118,3.0,4.0,81,0.00,,,0.21,Wunderground v.1.15,2013-07-14 15:46:00,
2013-07-14 11:52:00,81.3,74.9,30.29,SE,138,2.0,3.0,81,0.00,,,0.21,Wunderground v.1.15,2013-07-14 15:52:00,
2013-07-14 11:58:00,81.5,74.7,30.29,West,262,2.0,7.0,80,0.00,,,0.21,Wunderground v.1.15,2013-07-14 15:58:00,
2013-07-14 12:04:00,82.0,76.0,30.29,West,263,2.0,9.0,82,0.00,,,0.21,Wunderground v.1.15,2013-07-14 16:04:00,
2013-07-14 12:10:00,81.4,74.6,30.29,South,182,2.0,2.0,80,0.00,,,0.21,Wunderground v.1.15,2013-07-14 16:10:00,
2013-07-14 12:16:00,81.1,74.7,30.29,West,264,2.0,2.0,81,0.00,,,0.21,Wunderground v.1.15,2013-07-14 16:16:00,
2013-07-14 12:22:00,81.1,75.1,30.29,WSW,237,1.0,1.0,82,0.00,,,0.21,Wunderground v.1.15,2013-07-14 16:22:00,
2013-07-14 12:28:00,81.2,74.4,30.29,WSW,246,1.0,3.0,80,0.00,,,0.21,Wunderground v.1.15,2013-07-14 16:28:00,
2013-07-14 12:34:00,81.4,74.6,30.29,WSW,247,1.0,3.0,80,0.00,,,0.21,Wunderground v.1.15,2013-07-14 16:34:00,
2013-07-14 12:40:00,82.5,74.9,30.29,WNW,302,2.0,6.0,78,0.00,,,0.21,Wunderground v.1.15,2013-07-14 16:40:00,
2013-07-14 12:46:00,83.4,73.4,30.29,West,263,3.0,7.0,72,0.00,,,0.21,Wunderground v.1.15,2013-07-14 16:46:00,
2013-07-14 12:56:00,83.8,74.2,30.29,WNW,283,3.0,3.0,73,0.00,,,0.21,Wunderground v.1.15,2013-07-14 16:56:00,
2013-07-14 13:02:00,83.8,74.6,30.28,WNW,282,2.0,5.0,74,0.00,,,0.21,Wunderground v.1.15,2013-07-14 17:02:00,
2013-07-14 13:08:00,84.4,74.4,30.29,WSW,249,2.0,5.0,72,0.00,,,0.21,Wunderground v.1.15,2013-07-14 17:08:00,
2013-07-14 13:14:00,84.7,75.9,30.29,NW,326,3.0,10.0,75,0.00,,,0.21,Wunderground v.1.15,2013-07-14 17:14:00,
2013-07-14 13:20:00,84.7,74.3,30.28,WSW,253,3.0,3.0,71,0.00,,,0.21,Wunderground v.1.15,2013-07-14 17:20:00,
2013-07-14 13:26:00,84.7,74.3,30.28,WSW,250,3.0,6.0,71,0.00,,,0.21,Wunderground v.1.15,2013-07-14 17:26:00,
2013-07-14 13:32:00,83.8,73.4,30.28,WNW,285,3.0,13.0,71,0.00,,,0.21,Wunderground v.1.15,2013-07-14 17:32:00,
2013-07-14 13:38:00,83.7,74.5,30.28,NW,322,3.0,13.0,74,0.00,,,0.21,Wunderground v.1.15,2013-07-14 17:38:00,
2013-07-14 13:44:00,84.7,74.7,30.27,NW,305,2.0,13.0,72,0.00,,,0.21,Wunderground v.1.15,2013-07-14 17:44:00,
2013-07-14 13:50:00,85.4,76.2,30.27,NW,322,2.0,2.0,74,0.00,,,0.21,Wunderground v.1.15,2013-07-14 17:50:00,
2013-07-14 13:56:00,85.8,74.9,30.27,West,262,1.0,13.0,70,0.00,,,0.21,Wunderground v.1.15,2013-07-14 17:56:00,
2013-07-14 14:02:00,85.5,75.9,30.27,West,276,2.0,13.0,73,0.00,,,0.21,Wunderground v.1.15,2013-07-14 18:02:00,
2013-07-14 14:08:00,85.5,75.0,30.27,ESE,111,2.0,13.0,71,0.00,,,0.21,Wunderground v.1.15,2013-07-14 18:08:00,
2013-07-14 14:14:00,85.8,74.4,30.27,SSW,200,2.0,13.0,69,0.00,,,0.21,Wunderground v.1.15,2013-07-14 18:14:00,
2013-07-14 14:20:00,86.0,74.6,30.27,WSW,254,3.0,13.0,69,0.00,,,0.21,Wunderground v.1.15,2013-07-14 18:20:00,
2013-07-14 14:26:00,86.1,74.7,30.26,West,261,3.0,13.0,69,0.00,,,0.21,Wunderground v.1.15,2013-07-14 18:26:00,
2013-07-14 14:32:00,86.6,75.2,30.26,WSW,258,2.0,13.0,69,0.00,,,0.21,Wunderground v.1.15,2013-07-14 18:32:00,
2013-07-14 14:38:00,86.4,75.5,30.26,West,264,2.0,13.0,70,0.00,,,0.21,Wunderground v.1.15,2013-07-14 18:38:00,
2013-07-14 14:44:00,86.5,74.2,30.26,NNW,329,2.0,13.0,67,0.00,,,0.21,Wunderground v.1.15,2013-07-14 18:44:00,
2013-07-14 14:50:00,86.7,74.9,30.26,WNW,290,3.0,3.0,68,0.00,,,0.21,Wunderground v.1.15,2013-07-14 18:50:00,
2013-07-14 14:56:00,87.2,74.5,30.26,West,273,3.0,13.0,66,0.00,,,0.21,Wunderground v.1.15,2013-07-14 18:56:00,
2013-07-14 15:02:00,87.1,73.9,30.26,SSE,154,3.0,13.0,65,0.00,,,0.21,Wunderground v.1.15,2013-07-14 19:02:00,
2013-07-14 15:08:00,86.0,74.2,30.26,West,260,2.0,13.0,68,0.00,,,0.21,Wunderground v.1.15,2013-07-14 19:08:00,
2013-07-14 15:14:00,85.6,74.3,30.26,SW,218,2.0,13.0,69,0.00,,,0.21,Wunderground v.1.15,2013-07-14 19:14:00,
2013-07-14 15:20:00,82.0,73.7,30.27,SSE,148,3.0,3.0,76,0.76,,,0.36,Wunderground v.1.15,2013-07-14 19:20:00,
2013-07-14 15:26:00,79.8,73.8,30.26,SSE,153,1.0,13.0,82,0.09,,,0.36,Wunderground v.1.15,2013-07-14 19:26:00,
2013-07-14 15:32:00,79.2,75.3,30.26,SSE,153,0.0,13.0,88,0.05,,,0.36,Wunderground v.1.15,2013-07-14 19:32:00,
2013-07-14 15:38:00,79.3,75.8,30.26,SSE,164,0.0,13.0,89,0.00,,,0.36,Wunderground v.1.15,2013-07-14 19:38:00,
2013-07-14 15:44:00,79.7,75.5,30.25,WSW,244,0.0,13.0,87,0.00,,,0.36,Wunderground v.1.15,2013-07-14 19:44:00,
2013-07-14 15:50:00,80.3,76.8,30.25,West,263,0.0,13.0,89,0.00,,,0.36,Wunderground v.1.15,2013-07-14 19:50:00,
2013-07-14 15:56:00,81.0,76.1,30.25,SSE,147,0.0,13.0,85,0.00,,,0.36,Wunderground v.1.15,2013-07-14 19:56:00,
2013-07-14 16:02:00,81.7,77.1,30.25,WSW,237,1.0,13.0,86,0.00,,,0.36,Wunderground v.1.15,2013-07-14 20:02:00,
2013-07-14 16:08:00,81.7,76.0,30.25,West,259,1.0,13.0,83,0.00,,,0.36,Wunderground v.1.15,2013-07-14 20:08:00,
2013-07-14 16:14:00,81.6,76.3,30.25,West,263,1.0,13.0,84,0.00,,,0.36,Wunderground v.1.15,2013-07-14 20:14:00,
2013-07-14 16:20:00,82.0,75.6,30.25,NW,305,1.0,1.0,81,0.00,,,0.36,Wunderground v.1.15,2013-07-14 20:20:00,
2013-07-14 16:26:00,82.7,76.6,30.24,WSW,256,1.0,13.0,82,0.00,,,0.36,Wunderground v.1.15,2013-07-14 20:26:00,
2013-07-14 16:32:00,83.4,77.0,30.24,NNW,338,1.0,13.0,81,0.00,,,0.36,Wunderground v.1.15,2013-07-14 20:32:00,
2013-07-14 16:38:00,83.8,74.2,30.24,WSW,249,2.0,13.0,73,0.00,,,0.36,Wunderground v.1.15,2013-07-14 20:38:00,
2013-07-14 16:44:00,84.0,74.0,30.24,SW,236,2.0,13.0,72,0.00,,,0.36,Wunderground v.1.15,2013-07-14 20:44:00,
2013-07-14 16:50:00,84.5,75.3,30.23,West,262,1.0,13.0,74,0.00,,,0.36,Wunderground v.1.15,2013-07-14 20:50:00,
2013-07-14 16:56:00,84.7,74.7,30.23,NNE,16,2.0,13.0,72,0.00,,,0.36,Wunderground v.1.15,2013-07-14 20:56:00,
2013-07-14 17:02:00,85.1,76.3,30.23,WSW,254,1.0,13.0,75,0.00,,,0.36,Wunderground v.1.15,2013-07-14 21:02:00,
2013-07-14 17:08:00,85.5,75.0,30.24,West,263,1.0,13.0,71,0.00,,,0.36,Wunderground v.1.15,2013-07-14 21:08:00,
2013-07-14 17:14:00,85.3,73.5,30.24,West,268,2.0,13.0,68,0.00,,,0.36,Wunderground v.1.15,2013-07-14 21:14:00,
2013-07-14 17:20:00,85.3,74.0,30.24,SE,133,2.0,2.0,69,0.00,,,0.36,Wunderground v.1.15,2013-07-14 21:20:00,
2013-07-14 17:26:00,85.5,74.2,30.24,SW,232,1.0,13.0,69,0.00,,,0.36,Wunderground v.1.15,2013-07-14 21:26:00,
2013-07-14 17:32:00,85.6,74.3,30.24,West,279,1.0,13.0,69,0.00,,,0.36,Wunderground v.1.15,2013-07-14 21:32:00,
2013-07-14 17:38:00,85.7,73.5,30.24,ESE,108,2.0,13.0,67,0.00,,,0.36,Wunderground v.1.15,2013-07-14 21:38:00,
2013-07-14 17:44:00,85.8,73.6,30.25,WSW,248,2.0,13.0,67,0.00,,,0.36,Wunderground v.1.15,2013-07-14 21:44:00,
2013-07-14 17:50:00,85.9,74.1,30.24,SW,230,2.0,2.0,68,0.00,,,0.36,Wunderground v.1.15,2013-07-14 21:50:00,
2013-07-14 17:56:00,85.9,73.2,30.24,WSW,247,2.0,13.0,66,0.00,,,0.36,Wunderground v.1.15,2013-07-14 21:56:00,
2013-07-14 18:02:00,85.8,73.1,30.24,WNW,286,1.0,13.0,66,0.00,,,0.36,Wunderground v.1.15,2013-07-14 22:02:00,
2013-07-14 18:08:00,85.7,72.6,30.24,SSE,148,1.0,13.0,65,0.00,,,0.36,Wunderground v.1.15,2013-07-14 22:08:00,
2013-07-14 18:14:00,85.7,72.6,30.24,WNW,293,2.0,13.0,65,0.00,,,0.36,Wunderground v.1.15,2013-07-14 22:14:00,
2013-07-14 18:20:00,85.8,73.1,30.24,WSW,258,2.0,2.0,66,0.00,,,0.36,Wunderground v.1.15,2013-07-14 22:20:00,
2013-07-14 18:26:00,85.8,73.1,30.24,West,260,1.0,13.0,66,0.00,,,0.36,Wunderground v.1.15,2013-07-14 22:26:00,
2013-07-14 18:32:00,85.9,72.8,30.24,West,264,1.0,2.0,65,0.00,,,0.36,Wunderground v.1.15,2013-07-14 22:32:00,
2013-07-14 18:38:00,85.8,72.7,30.25,West,260,2.0,13.0,65,0.00,,,0.36,Wunderground v.1.15,2013-07-14 22:38:00,
2013-07-14 18:44:00,84.7,73.8,30.25,South,191,3.0,13.0,70,0.00,,,0.36,Wunderground v.1.15,2013-07-14 22:44:00,
2013-07-14 18:50:00,83.1,73.5,30.25,WSW,252,4.0,4.0,73,0.00,,,0.36,Wunderground v.1.15,2013-07-14 22:50:00,
2013-07-14 18:56:00,81.2,72.9,30.25,West,260,4.0,13.0,76,0.00,,,0.36,Wunderground v.1.15,2013-07-14 22:56:00,
2013-07-14 19:02:00,80.1,72.6,30.25,WNW,297,1.0,13.0,78,0.00,,,0.36,Wunderground v.1.15,2013-07-14 23:02:00,
2013-07-14 19:08:00,79.5,72.8,30.25,WNW,287,1.0,13.0,80,0.00,,,0.36,Wunderground v.1.15,2013-07-14 23:08:00,
2013-07-14 19:14:00,79.2,72.9,30.25,ENE,74,0.0,13.0,81,0.00,,,0.36,Wunderground v.1.15,2013-07-14 23:14:00,
2013-07-14 19:20:00,78.9,72.2,30.25,WSW,256,1.0,13.0,80,0.00,,,0.36,Wunderground v.1.15,2013-07-14 23:20:00,
2013-07-14 19:26:00,78.5,72.5,30.25,West,261,1.0,13.0,82,0.00,,,0.36,Wunderground v.1.15,2013-07-14 23:26:00,
2013-07-14 19:32:00,78.2,72.3,30.25,SW,232,1.0,13.0,82,0.00,,,0.36,Wunderground v.1.15,2013-07-14 23:32:00,
2013-07-14 19:38:00,78.0,72.4,30.26,West,266,1.0,13.0,83,0.00,,,0.36,Wunderground v.1.15,2013-07-14 23:38:00,
2013-07-14 19:44:00,77.8,72.2,30.26,West,271,1.0,13.0,83,0.00,,,0.36,Wunderground v.1.15,2013-07-14 23:44:00,
2013-07-14 19:50:00,77.6,72.0,30.26,West,262,1.0,13.0,83,0.00,,,0.36,Wunderground v.1.15,2013-07-14 23:50:00,
2013-07-14 19:52:00,77.6,72.0,30.26,WSW,255,1.0,13.0,83,0.00,,,0.36,Wunderground v.1.15,2013-07-14 23:52:00,
2013-07-14 19:58:00,77.4,72.2,30.26,SSW,205,0.0,13.0,84,0.00,,,0.36,Wunderground v.1.15,2013-07-14 23:58:00,
2013-07-14 20:04:00,77.2,72.0,30.27,WSW,255,0.0,13.0,84,0.00,,,0.36,Wunderground v.1.15,2013-07-15 00:04:00,
2013-07-14 20:10:00,77.0,71.8,30.27,SW,235,1.0,1.0,84,0.00,,,0.36,Wunderground v.1.15,2013-07-15 00:10:00,
2013-07-14 20:16:00,76.9,71.7,30.27,WNW,284,1.0,13.0,84,0.00,,,0.36,Wunderground v.1.15,2013-07-15 00:16:00,
2013-07-14 20:22:00,76.7,71.8,30.27,East,97,0.0,13.0,85,0.00,,,0.36,Wunderground v.1.15,2013-07-15 00:22:00,
2013-07-14 20:28:00,76.6,71.7,30.27,West,268,0.0,13.0,85,0.00,,,0.36,Wunderground v.1.15,2013-07-15 00:28:00,
2013-07-14 20:34:00,76.4,71.6,30.27,West,264,1.0,13.0,85,0.00,,,0.36,Wunderground v.1.15,2013-07-15 00:34:00,
2013-07-14 20:40:00,76.3,71.5,30.27,West,264,0.0,13.0,85,0.00,,,0.36,Wunderground v.1.15,2013-07-15 00:40:00,
2013-07-14 20:46:00,76.1,71.3,30.27,West,267,1.0,13.0,85,0.00,,,0.36,Wunderground v.1.15,2013-07-15 00:46:00,
2013-07-14 20:52:00,75.9,71.4,30.27,West,267,0.0,13.0,86,0.00,,,0.36,Wunderground v.1.15,2013-07-15 00:52:00,
2013-07-14 20:58:00,75.7,71.2,30.27,West,265,0.0,13.0,86,0.00,,,0.36,Wunderground v.1.15,2013-07-15 00:58:00,
2013-07-14 21:04:00,75.5,71.4,30.27,West,262,0.0,13.0,87,0.00,,,0.36,Wunderground v.1.15,2013-07-15 01:04:00,
2013-07-14 21:10:00,75.3,71.2,30.28,West,267,0.0,13.0,87,0.00,,,0.36,Wunderground v.1.15,2013-07-15 01:10:00,
2013-07-14 21:16:00,75.2,71.4,30.28,West,274,0.0,13.0,88,0.00,,,0.36,Wunderground v.1.15,2013-07-15 01:16:00,
2013-07-14 21:22:00,75.0,71.2,30.28,West,274,0.0,13.0,88,0.00,,,0.36,Wunderground v.1.15,2013-07-15 01:22:00,
2013-07-14 21:28:00,74.9,71.4,30.29,West,274,0.0,13.0,89,0.00,,,0.36,Wunderground v.1.15,2013-07-15 01:28:00,
2013-07-14 21:34:00,74.8,71.3,30.29,West,269,0.0,13.0,89,0.00,,,0.36,Wunderground v.1.15,2013-07-15 01:34:00,
2013-07-14 21:40:00,74.7,71.2,30.29,West,269,0.0,13.0,89,0.00,,,0.36,Wunderground v.1.15,2013-07-15 01:40:00,
2013-07-14 21:46:00,74.6,71.1,30.29,West,269,0.0,13.0,89,0.00,,,0.36,Wunderground v.1.15,2013-07-15 01:46:00,
2013-07-14 21:52:00,74.5,71.4,30.29,West,269,0.0,13.0,90,0.00,,,0.36,Wunderground v.1.15,2013-07-15 01:52:00,
2013-07-14 21:58:00,74.4,71.3,30.30,West,269,0.0,13.0,90,0.00,,,0.36,Wunderground v.1.15,2013-07-15 01:58:00,
2013-07-14 22:04:00,74.3,71.2,30.30,West,269,0.0,13.0,90,0.00,,,0.36,Wunderground v.1.15,2013-07-15 02:04:00,
2013-07-14 22:10:00,74.2,71.1,30.30,West,269,0.0,13.0,90,0.00,,,0.36,Wunderground v.1.15,2013-07-15 02:10:00,
2013-07-14 22:16:00,74.2,71.4,30.30,West,269,0.0,13.0,91,0.00,,,0.36,Wunderground v.1.15,2013-07-15 02:16:00,
2013-07-14 22:22:00,74.1,71.3,30.30,West,269,0.0,13.0,91,0.00,,,0.36,Wunderground v.1.15,2013-07-15 02:22:00,
2013-07-14 22:28:00,74.1,71.3,30.31,West,269,0.0,13.0,91,0.00,,,0.36,Wunderground v.1.15,2013-07-15 02:28:00,
2013-07-14 22:34:00,74.1,71.3,30.30,West,269,0.0,13.0,91,0.00,,,0.36,Wunderground v.1.15,2013-07-15 02:34:00,
2013-07-14 22:40:00,74.1,71.3,30.31,West,269,0.0,13.0,91,0.00,,,0.36,Wunderground v.1.15,2013-07-15 02:40:00,
2013-07-14 22:46:00,74.1,71.3,30.31,West,270,0.0,13.0,91,0.00,,,0.36,Wunderground v.1.15,2013-07-15 02:46:00,
2013-07-14 22:52:00,74.2,71.4,30.31,South,176,0.0,13.0,91,0.00,,,0.36,Wunderground v.1.15,2013-07-15 02:52:00,
2013-07-14 22:58:00,74.3,71.5,30.31,West,268,0.0,13.0,91,0.00,,,0.36,Wunderground v.1.15,2013-07-15 02:58:00,
2013-07-14 23:04:00,74.4,71.6,30.31,West,267,0.0,13.0,91,0.00,,,0.36,Wunderground v.1.15,2013-07-15 03:04:00,
2013-07-14 23:10:00,74.3,71.5,30.31,West,270,0.0,13.0,91,0.00,,,0.36,Wunderground v.1.15,2013-07-15 03:10:00,
2013-07-14 23:16:00,74.3,71.5,30.31,WNW,293,0.0,13.0,91,0.00,,,0.36,Wunderground v.1.15,2013-07-15 03:16:00,
2013-07-14 23:22:00,74.3,71.5,30.31,West,279,0.0,13.0,91,0.00,,,0.36,Wunderground v.1.15,2013-07-15 03:22:00,
2013-07-14 23:28:00,74.2,71.4,30.31,West,279,0.0,13.0,91,0.00,,,0.36,Wunderground v.1.15,2013-07-15 03:28:00,
2013-07-14 23:34:00,74.1,71.3,30.31,West,279,0.0,13.0,91,0.00,,,0.36,Wunderground v.1.15,2013-07-15 03:34:00,
2013-07-14 23:40:00,74.0,71.2,30.31,West,279,0.0,13.0,91,0.00,,,0.36,Wunderground v.1.15,2013-07-15 03:40:00,
2013-07-14 23:46:00,73.9,71.1,30.31,West,279,0.0,13.0,91,0.00,,,0.36,Wunderground v.1.15,2013-07-15 03:46:00,
2013-07-14 23:52:00,73.8,71.0,30.31,West,279,0.0,13.0,91,0.00,,,0.36,Wunderground v.1.15,2013-07-15 03:52:00,
2013-07-14 23:58:00,73.7,70.9,30.31,West,279,0.0,13.0,91,0.00,,,0.36,Wunderground v.1.15,2013-07-15 03:58:00,